Volver al catálogo

COSMOS 2251

ActivoMilitarLEO
NORAD 22675·PAYLOAD·🇷🇺 Russia

Lanzado Jun 16, 1993 desde Plesetsk Cosmodrome

Loading…

Próximos Pases (próximas 24 horas)

TLE

ActualizadoSource: Space-Track

Época: Sep 14, 2026, 12:34 UTC

1 22675U 93036A   26257.52411327  .00000062  00000-0  31916-4 0  9992
2 22675  74.0404 171.9685 0025053 192.1088 167.9464 14.33269118737242

Sigue COSMOS 2251 en tiempo real con AllMySat

Download on the App Store